Location: Hulftegg
(47.3633°N, 8.9672°E)
Time: 07:35:15
(UTC+00:00)

Daily predictions for brighter satellites

Satellite Brightness Start Highest point End
(mag) Time Altitude Azimuth Time Altitude Azimuth Time Altitude Azimuth
Okean O Rocket 1.7 16:35:24 10° SSE 16:39:45 58° ENE 16:44:07 10° N
Cosmos 773 Rocket 4.1 16:36:26 10° NNW 16:41:29 52° ENE 16:46:29 10° SE
YAOGAN 6 3.5 16:38:08 10° S 16:41:36 53° W 16:45:09 10° NNW
SMAP 3.0 16:37:06 10° SSE 16:41:44 80° ENE 16:46:25 10° NNW
SeaSat 1 3.9 16:37:23 10° NNE 16:41:49 34° NW 16:46:14 10° WSW
Cosmos 1626 2.0 16:38:41 10° S 16:42:22 75° E 16:46:04 10° NNE
CZ-4B R/B 3.2 16:38:16 10° SSE 16:43:48 77° ENE 16:49:27 10° NNW
SL-24 R/B 4.1 16:40:02 10° SSE 16:44:20 72° ENE 16:48:58 10° N
AQUARIUS 4.1 16:44:11 10° SSE 16:48:40 82° ENE 16:53:12 10° NNW
Cosmos 2297 Rocket 4.2 16:45:38 10° W 16:49:47 20° NW 16:53:58 10° N
Cosmos 1603 3.9 16:44:54 10° NNW 16:50:37 80° WSW 16:56:21 10° SSE
Meteor 2-10 Rocket 4.2 16:46:12 10° N 16:51:17 35° ENE 16:56:09 10° SE
CZ-2D R/B 4.0 16:53:08 10° SE 16:56:32 31° ENE 16:59:57 10° N
Cosmos 1606 Rocket 3.6 16:52:18 10° N 16:56:39 60° ENE 17:01:01 10° SSE
H-2A R/B 2.1 16:53:51 10° NNE 16:58:20 79° ESE 17:02:42 10° S
USA 234 4.0 16:53:13 10° ENE 16:59:09 38° N 17:05:06 10° WNW
YAOGAN 1 3.8 16:56:05 10° ESE 16:59:19 21° ENE 17:02:35 10° NNE
Cosmos 1892 Rocket 4.1 16:55:30 10° SSE 16:59:27 35° E 17:03:23 10° NNE
ATLAS 5 CENTAUR R/B 1.5 16:57:08 10° SW 17:01:10 79° NW 17:05:44 10° NE
FengYun 1-2 T 4.3 16:55:48 10° SSE 17:01:21 87° ENE 17:07:00 10° NNW
CZ-4C R/B 3.7 16:59:08 10° N 17:02:12 49° WNW 17:05:15 10° SSW
SL-14 R/B 3.3 17:00:59 10° SSW 17:04:51 80° W 17:08:48 10° N
Helios 1A Rocket 4.3 17:02:17 10° ESE 17:05:12 19° ENE 17:08:08 10° NNE
RESURS DK-1 3.3 17:02:36 10° SW 17:06:36 46° NW 17:10:36 10° NNE
MOS 1 Rocket 3.9 17:03:52 10° NNE 17:07:39 29° E 17:11:23 10° SSE
ATLAS 3B R/B 3.9 17:01:48 10° NW 17:08:28 50° WSW 17:15:24 10° SSE
Cosmos 2228 3.0 17:04:22 10° N 17:08:39 88° E 17:12:56 10° S
Cosmos 2142 Rocket 4.5 17:04:31 10° N 17:10:44 85° E 17:16:52 10° S
SKYMED 2 3.9 17:09:30 10° NNE 17:13:40 44° E 17:17:50 10° S
Meteor 2-5 Rocket 3.8 17:08:12 10° SSW 17:13:47 80° WNW 17:19:21 10° N
CZ-4C R/B 3.4 17:10:01 10° W 17:14:52 37° NNW 17:20:41 10° NNE
Cosmos 1538 Rocket 4.0 17:10:05 10° NNW 17:15:12 59° ENE 17:20:18 10° SE
Aureole 3 4.1 17:12:34 10° NNE 17:15:25 21° ENE 17:17:55 10° ESE
SJ 16-02 2.5 17:13:11 10° SSE 17:16:43 24° E 17:18:57 16° ENE
CZ-3B R/B 2.2 17:14:39 10° NW 17:16:49 34° NNE 17:20:09 15° E
Nadezhda 4 Rocket 4.4 17:12:23 10° SSE 17:18:08 40° E 17:23:51 10° NNE
Cosmos 1777 Rocket 4.0 17:14:42 10° S 17:19:53 64° ESE 17:25:08 10° NNE
Cosmos 2263 Rocket 2.7 17:16:17 10° SW 17:21:54 60° WNW 17:27:31 10° NNE
YAOGAN 3 4.5 17:17:45 10° SSE 17:22:05 74° ENE 17:26:28 10° N
Cosmos 1455 2.8 17:22:38 10° N 17:26:06 32° ENE 17:29:33 10° SE
Cosmos 2058 Rocket 3.1 17:23:38 10° N 17:28:07 63° ENE 17:32:35 10° SSE
Cosmos 1300 4.0 17:26:40 10° NNW 17:30:18 43° W 17:33:56 10° SSW
X-37B 2.5 17:29:53 10° SSW 17:32:15 19° SSE 17:33:14 17° SE
ARGOS 3.6 17:32:44 10° SE 17:37:35 36° ENE 17:42:28 10° N
Okean 1-7 Rocket 3.6 17:36:26 10° S 17:40:54 63° E 17:45:26 10° NNE
CREW DRAGON DEMO-1 DEB 3.0 17:38:38 10° WNW 17:41:28 47° NNE 17:41:52 43° NE
Lacrosse 5 1.8 17:36:29 10° NW 17:41:33 69° NNE 17:45:00 20° ESE
NOSS 3-1 (C) 4.3 17:35:00 10° NW 17:41:48 44° NE 17:47:11 20° E
Cosmos 1726 Rocket 4.2 17:39:19 10° NNW 17:43:36 57° W 17:47:54 10° S
ERS-2 2.1 17:42:03 20° NNE 17:44:22 55° ESE 17:47:55 10° S
ISS -2.8 17:41:23 10° SSW 17:44:26 33° SE 17:45:00 31° ESE
Cosmos 1939 Rocket 3.8 17:40:42 10° S 17:44:43 52° W 17:48:44 10° NNW
CZ-2C R/B 3.7 17:45:49 25° E 17:46:00 25° E 17:50:31 10° SSE
PSLV R/B 4.1 17:43:31 16° NNE 17:46:44 50° E 17:50:49 10° S
EXPRESS MD2 4.4 17:38:55 10° WNW 17:47:18 69° SSW 17:50:21 19° SE
CSL-04 Debris 4.4 17:42:33 10° SE 17:47:38 44° ENE 17:52:45 10° N
Meteor 1-24 Rocket 4.4 17:42:46 10° SSW 17:47:59 52° WNW 17:53:11 10° N
COSMOS 2455 2.8 17:43:13 10° SSW 17:49:14 84° ESE 17:54:02 17° NE
Cosmos 1626 Rocket 3.8 17:48:01 10° SSE 17:52:10 43° E 17:54:01 28° NE
Cosmos 1844 3.9 17:48:48 10° S 17:54:12 49° ESE 17:57:10 26° NE
Cosmos 1833 Rocket 3.9 17:50:25 10° N 17:54:41 23° NE 17:54:41 23° NE
Cosmos 2026 Rocket 4.4 17:49:46 10° SSE 17:55:15 36° E 18:00:49 10° NNE
IRS-1C Rocket 4.2 17:50:14 10° SSE 17:55:29 79° WSW 18:00:46 10° NNW
Cosmos 2082 Rocket 3.9 17:53:00 10° N 17:55:56 16° NNE 17:55:56 16° NNE
CZ-4 R/B 1.3 17:52:51 10° SSE 17:56:58 85° ENE 18:01:02 10° NNW
NOAA 15 4.5 17:53:03 10° SSE 17:58:17 78° ENE 18:03:35 10° NNW
USA 229 DEB 4.3 17:51:58 10° NW 17:58:43 41° NE 18:01:49 29° E
USA 229 4.3 17:52:04 10° NW 17:58:48 41° NE 18:01:52 29° E
COSMO-SKYMED 1 3.1 17:57:32 10° N 18:01:50 60° WNW 18:06:06 10° SSW
SL-08 RB Rocket 4.3 18:05:15 36° NE 18:05:15 36° NE 18:08:37 10° N
USA 267 4.1 18:04:13 28° ESE 18:05:40 30° SE 18:11:16 10° S
CZ-4B R/B 3.3 18:08:54 10° N 18:11:55 30° WNW 18:14:52 10° SW
Okean-O 2.8 18:08:41 10° S 18:13:06 75° WSW 18:17:33 10° NNW
NOSS 3-1 (A) 4.3 18:07:30 10° NW 18:14:21 44° NE 18:16:57 35° E
CZ-2C R/B 3.9 18:09:32 10° S 18:14:41 53° W 18:20:09 10° NNW
Cosmos 1844 Rocket 2.6 18:10:31 10° SSW 18:16:11 87° ESE 18:19:24 27° NNE
Cosmos 923 Rocket 3.9 18:11:33 10° NNW 18:16:57 86° ENE 18:22:16 10° SSE
H-2A R/B 2.0 18:12:04 10° SSE 18:17:03 81° WSW 18:22:11 10° NNW
Meteor 1-21 Rocket 4.0 18:13:11 10° S 18:18:43 85° E 18:24:18 10° NNE
Cosmos 1689 Rocket 3.6 18:20:00 29° SSW 18:20:00 29° SSW 18:21:36 10° SSW
Aureole 2 Rocket 3.0 18:16:36 10° SW 18:19:28 46° WNW 18:19:28 46° WNW
ATLAS 2AS CENTAUR R/B 4.3 18:13:34 10° W 18:20:25 31° NNW 18:25:31 16° NNE
Cosmos 2195 Rocket 4.4 18:14:30 10° S 18:20:44 66° E 18:27:02 10° NNE
Cosmos 158 Rocket 4.1 18:16:59 10° NNW 18:22:20 80° WSW 18:27:43 10° SSE
Meteor 2-8 Rocket 4.3 18:16:37 10° N 18:22:42 68° ENE 18:28:46 10° SSE
Cosmos 1680 Rocket 3.3 18:19:04 10° NNW 18:24:21 77° ENE 18:26:36 35° SSE
Cosmos 1898 Rocket 3.9 18:19:28 10° S 18:23:42 43° SE 18:23:42 43° SE
Cosmos 1627 Rocket 4.3 18:24:29 10° S 18:30:36 69° E 18:36:50 10° NNE
Cosmos 2098 Rocket 4.3 18:25:03 10° SSE 18:31:57 59° E 18:39:14 10° NNE
SAR-Lupe-4 4.4 18:31:27 42° NW 18:32:07 48° WNW 18:35:33 10° SW
Cosmos 1602 Rocket 3.6 18:27:51 10° S 18:31:34 65° S 18:31:34 65° S
Cosmos 1818 3.6 18:27:49 10° SW 18:33:15 78° NW 18:34:52 47° NNE
YAOGAN 1 3.6 18:30:59 10° S 18:35:08 45° W 18:39:19 10° NNW
Cosmos 1428 Rocket 4.4 18:29:22 10° S 18:35:36 70° E 18:41:54 10° NNE
CSL-04 Rocket 3.7 18:33:29 10° SSE 18:38:53 78° WSW 18:44:24 10° NNW
Helios 1A Rocket 3.9 18:36:01 10° S 18:40:01 48° W 18:44:04 10° NNW
USA 234 3.4 18:40:20 49° NE 18:41:27 54° NNE 18:47:48 10° NW
Cosmos 1092 Rocket 4.0 18:39:33 10° SSW 18:45:45 77° W 18:51:57 10° N
Iridium 4 Rocket 3.7 18:40:50 10° N 18:46:35 78° W 18:51:52 10° S
ATLAS 5 CENTAUR R/B 3.7 18:43:28 10° WNW 18:46:37 19° NNW 18:47:38 18° N
Cosmos 1812 Rocket 4.1 18:45:20 10° NNW 18:48:54 52° NW 18:48:54 52° NW
Cosmos 2344 4.2 18:45:01 10° NW 18:54:11 75° NE 18:59:35 39° SE
SJ 16-02 2.6 18:50:58 10° SW 18:55:05 38° WNW 18:56:00 34° NNW
Cosmos 2112 Rocket 4.3 18:56:34 10° NNW 19:01:46 62° WSW 19:02:18 58° SW
CZ-4C R/B 4.2 19:01:05 10° NW 19:05:21 20° N 19:06:30 19° N
X-37B 4.1 19:05:23 10° WSW 19:05:31 11° WSW 19:05:31 11° WSW
COSMOS 2406 4.0 19:10:56 10° NNW 19:14:49 44° NNW 19:14:49 44° NNW
ISS -0.3 19:17:48 10° W 19:17:58 11° W 19:17:58 11° W
Lacrosse 5 3.5 19:19:55 10° WNW 19:24:12 28° SW 19:24:15 28° SW
CZ-2C R/B 3.4 19:27:19 51° W 19:27:19 51° W 19:32:01 10° SW
NOSS 3-1 (C) 4.3 19:25:44 10° NW 19:33:12 66° SW 19:34:40 57° S
Cosmos 1833 Rocket 4.2 19:33:45 10° NNW 19:36:25 29° NNW 19:36:25 29° NNW
Cosmos 2082 Rocket 4.1 19:36:01 10° NNW 19:37:48 21° NNW 19:37:48 21° NNW
USA 267 4.1 19:51:34 44° SW 19:51:34 44° SW 19:55:45 10° SW
USA 229 DEB 4.2 19:42:54 10° NW 19:49:18 63° W 19:49:18 63° W
USA 229 4.2 19:43:00 10° NW 19:49:20 62° W 19:49:20 62° W
NOSS 3-1 (A) 4.5 19:58:18 10° NW 20:04:26 58° W 20:04:26 58° W
